User: anonymous   Login
Location: Unspecified
(0.0000°N, 0.0000°E)
Time: 00:01:44
(UTC+00:00)
Language:

SICRAL 1B - Orbit

View from above orbital plane
View from above orbital plane
View from above satellite
View from above satellite

Ground track
Ground track

The orbit data is extracted from the following two-line orbital elements,

1 34810U 09020A   17092.71953667 0.00000000  00000-0  00000-0 0    03
2 34810   0.1303 102.1344 0008000 184.6529 175.4075  1.00270000    02
Epoch (UTC): 02 April 2017 17:16:07
Eccentricity: 0.0008000
inclination: 0.1303°
perigee height: 35753 km
apogee height: 35820 km
right ascension of ascending node: 102.1344°
argument of perigee: 184.6529°
revolutions per day: 1.00270000
mean anomaly at epoch: 175.4075°
orbit number at epoch: 0

The dashed part of the orbit path shows where the satellite is in the earth's shadow,  

DLR